User: anonymous   Login
Location: Unspecified
(0.0000°N, 0.0000°E)
Time: 12:49:01
(UTC+00:00)
Language:

NATO 4A - Orbit

View from above orbital plane
View from above orbital plane
View from above satellite
View from above satellite

Ground track
Ground track

The orbit data is extracted from the following two-line orbital elements,

1 21047U 91001A   17262.31368806 -.00000072 +00000-0 +00000-0 0  9998
2 21047 013.1194 016.3817 0006203 184.1180 187.2036 00.98282832096740
Epoch (UTC): 19 September 2017 07:31:42
Eccentricity: 0.0006203
inclination: 13.1194°
perigee height: 36326 km
apogee height: 36379 km
right ascension of ascending node: 16.3817°
argument of perigee: 184.1180°
revolutions per day: 0.98282832
mean anomaly at epoch: 187.2036°
orbit number at epoch: 9674

The dashed part of the orbit path shows where the satellite is in the earth's shadow,  

DLR